Terminal Aerodrome Forecast
Issued by NWS

Home | Current Version | Previous Version | Text Only | Print | Product List | Glossary On
Versions: 1 2 3 4 5 6 7 8 9 10 11 12
000
FTUS45 KRIW 041700
TAFJAC
TAF
KJAC 041725Z 0418/0518 18005KT P6SM BKN100
     FM042000 23007KT P6SM VCTS SCT030CB BKN100
     FM050200 VRB05KT P6SM VCSH SCT030 SCT100
     FM050600 35006KT P6SM SCT120 BKN200
      AMD LTD TO CLD VIS AND WIND=

USA.gov is the U.S. government's official web portal to all federal, state and local government web resources and services.